date,time,SUV Intensity [MED/Hr],UV Index,Daily total [MED],Since Last [MED]
16/09/2022,00:00:49,-0.000,0.0,0.0,0.0
16/09/2022,00:01:41,0.000,0.0,0.0,0.0
16/09/2022,00:02:42,0.000,0.0,0.0,0.0
16/09/2022,00:03:41,-0.000,0.0,0.0,0.0
16/09/2022,00:04:41,0.000,0.0,0.0,0.0
16/09/2022,00:05:41,-0.000,0.0,0.0,0.0
16/09/2022,00:06:41,0.001,0.0,0.0,0.0
16/09/2022,00:07:42,0.000,0.0,0.0,0.0
16/09/2022,00:08:41,0.000,0.0,0.0,0.0
16/09/2022,00:09:41,-0.000,0.0,0.0,0.0
16/09/2022,00:10:41,0.000,0.0,0.0,0.0
16/09/2022,00:11:41,0.000,0.0,0.0,0.0
16/09/2022,00:12:41,0.000,0.0,0.0,0.0
16/09/2022,00:13:41,0.000,0.0,0.0,0.0
16/09/2022,00:14:42,0.000,0.0,0.0,0.0
16/09/2022,00:15:41,-0.001,0.0,0.0,0.0
16/09/2022,00:16:41,0.001,0.0,0.0,0.0
16/09/2022,00:17:41,0.000,0.0,0.0,0.0
16/09/2022,00:18:41,0.000,0.0,0.0,0.0
16/09/2022,00:19:41,0.000,0.0,0.0,0.0
16/09/2022,00:20:41,0.000,0.0,0.0,0.0
16/09/2022,00:21:41,0.000,0.0,0.0,0.0
16/09/2022,00:22:41,-0.000,0.0,0.0,0.0
16/09/2022,00:23:41,-0.000,0.0,0.0,0.0
16/09/2022,00:24:41,0.000,0.0,0.0,0.0
16/09/2022,00:25:41,-0.000,0.0,0.0,0.0
16/09/2022,00:26:42,0.000,0.0,0.0,0.0
16/09/2022,00:27:41,0.000,0.0,0.0,0.0
16/09/2022,00:28:49,-0.001,0.0,0.0,0.0
16/09/2022,00:29:41,0.000,0.0,0.0,0.0
16/09/2022,00:30:41,0.000,0.0,0.0,0.0
16/09/2022,00:31:41,-0.001,0.0,0.0,0.0
16/09/2022,00:32:41,-0.000,0.0,0.0,0.0
16/09/2022,00:33:41,0.000,0.0,0.0,0.0
16/09/2022,00:34:41,0.000,0.0,0.0,0.0
16/09/2022,00:35:41,-0.000,0.0,0.0,0.0
16/09/2022,00:36:42,-0.000,0.0,0.0,0.0
16/09/2022,00:37:32,0.000,0.0,0.0,0.0
16/09/2022,00:38:42,-0.001,0.0,0.0,0.0
16/09/2022,00:39:42,-0.000,0.0,0.0,0.0
16/09/2022,00:40:42,-0.000,0.0,0.0,0.0
16/09/2022,00:41:28,0.001,0.0,0.0,0.0
16/09/2022,00:42:42,-0.000,0.0,0.0,0.0
16/09/2022,00:43:41,-0.001,0.0,0.0,0.0
16/09/2022,00:44:41,-0.000,0.0,0.0,0.0
16/09/2022,00:45:41,-0.001,0.0,0.0,0.0
16/09/2022,00:46:41,-0.000,0.0,0.0,0.0
16/09/2022,00:47:41,-0.000,0.0,0.0,0.0
16/09/2022,00:48:42,0.000,0.0,0.0,0.0
16/09/2022,00:49:41,-0.000,0.0,0.0,0.0
16/09/2022,00:50:41,0.000,0.0,0.0,0.0
16/09/2022,00:51:41,-0.001,0.0,0.0,0.0
16/09/2022,00:52:41,-0.000,0.0,0.0,0.0
16/09/2022,00:53:41,0.000,0.0,0.0,0.0
16/09/2022,00:54:41,-0.000,0.0,0.0,0.0
16/09/2022,00:55:33,-0.000,0.0,0.0,0.0
16/09/2022,00:56:42,-0.001,0.0,0.0,0.0
16/09/2022,00:57:42,-0.000,0.0,0.0,0.0
16/09/2022,00:58:42,-0.000,0.0,0.0,0.0
16/09/2022,00:59:50,-0.000,0.0,0.0,0.0
16/09/2022,01:00:41,-0.000,0.0,0.0,0.0
16/09/2022,01:01:41,-0.001,0.0,0.0,0.0
16/09/2022,01:02:41,-0.000,0.0,0.0,0.0
16/09/2022,01:03:42,0.001,0.0,0.0,0.0
16/09/2022,01:04:41,-0.000,0.0,0.0,0.0
16/09/2022,01:05:41,-0.000,0.0,0.0,0.0
16/09/2022,01:06:41,-0.000,0.0,0.0,0.0
16/09/2022,01:07:41,-0.000,0.0,0.0,0.0
16/09/2022,01:08:41,-0.000,0.0,0.0,0.0
16/09/2022,01:09:49,0.001,0.0,0.0,0.0
16/09/2022,01:10:42,-0.001,0.0,0.0,0.0
16/09/2022,01:11:41,-0.001,0.0,0.0,0.0
16/09/2022,01:12:41,-0.000,0.0,0.0,0.0
16/09/2022,01:13:41,-0.000,0.0,0.0,0.0
16/09/2022,01:14:42,-0.000,0.0,0.0,0.0
16/09/2022,01:15:41,0.000,0.0,0.0,0.0
16/09/2022,01:16:41,0.000,0.0,0.0,0.0
16/09/2022,01:17:41,-0.000,0.0,0.0,0.0
16/09/2022,01:18:41,-0.001,0.0,0.0,0.0
16/09/2022,01:19:42,-0.001,0.0,0.0,0.0
16/09/2022,01:20:41,-0.001,0.0,0.0,0.0
16/09/2022,01:21:41,-0.000,0.0,0.0,0.0
16/09/2022,01:22:41,0.000,0.0,0.0,0.0
16/09/2022,01:23:41,-0.000,0.0,0.0,0.0
16/09/2022,01:24:41,0.001,0.0,0.0,0.0
16/09/2022,01:25:42,0.000,0.0,0.0,0.0
16/09/2022,01:26:41,-0.000,0.0,0.0,0.0
16/09/2022,01:27:49,-0.000,0.0,0.0,0.0
16/09/2022,01:28:41,-0.000,0.0,0.0,0.0
16/09/2022,01:29:41,-0.001,0.0,0.0,0.0
16/09/2022,01:30:41,-0.001,0.0,0.0,0.0
16/09/2022,01:31:42,0.001,0.0,0.0,0.0
16/09/2022,01:32:42,0.000,0.0,0.0,0.0
16/09/2022,01:33:42,-0.000,0.0,0.0,0.0
16/09/2022,01:34:42,-0.001,0.0,0.0,0.0
16/09/2022,01:35:41,-0.000,0.0,0.0,0.0
16/09/2022,01:36:41,-0.001,0.0,0.0,0.0
16/09/2022,01:37:41,-0.000,0.0,0.0,0.0
16/09/2022,01:38:49,-0.001,0.0,0.0,0.0
16/09/2022,01:39:42,0.001,0.0,0.0,0.0
16/09/2022,01:40:42,-0.001,0.0,0.0,0.0
16/09/2022,01:41:41,-0.001,0.0,0.0,0.0
16/09/2022,01:42:41,0.000,0.0,0.0,0.0
16/09/2022,01:43:42,-0.000,0.0,0.0,0.0
16/09/2022,01:44:41,-0.001,0.0,0.0,0.0
16/09/2022,01:45:50,-0.001,0.0,0.0,0.0
16/09/2022,01:46:41,-0.001,0.0,0.0,0.0
16/09/2022,01:47:41,0.000,0.0,0.0,0.0
16/09/2022,01:48:41,-0.001,0.0,0.0,0.0
16/09/2022,01:49:41,-0.001,0.0,0.0,0.0
16/09/2022,01:50:41,0.000,0.0,0.0,0.0
16/09/2022,01:51:41,0.000,0.0,0.0,0.0
16/09/2022,01:52:41,-0.000,0.0,0.0,0.0
16/09/2022,01:53:41,-0.000,0.0,0.0,0.0
16/09/2022,01:54:41,0.000,0.0,0.0,0.0
16/09/2022,01:55:51,-0.000,0.0,0.0,0.0
16/09/2022,01:56:40,-0.000,0.0,0.0,0.0
16/09/2022,01:57:41,-0.001,0.0,0.0,0.0
16/09/2022,01:58:50,-0.001,0.0,0.0,0.0
16/09/2022,01:59:42,-0.001,0.0,0.0,0.0
16/09/2022,02:00:42,-0.001,0.0,0.0,0.0
16/09/2022,02:01:41,-0.001,0.0,0.0,0.0
16/09/2022,02:02:41,-0.000,0.0,0.0,0.0
16/09/2022,02:03:42,0.000,0.0,0.0,0.0
16/09/2022,02:04:42,-0.001,0.0,0.0,0.0
16/09/2022,02:05:42,-0.001,0.0,0.0,0.0
16/09/2022,02:06:41,-0.001,0.0,0.0,0.0
16/09/2022,02:07:41,0.000,0.0,0.0,0.0
16/09/2022,02:08:50,-0.001,0.0,0.0,0.0
16/09/2022,02:09:41,0.000,0.0,0.0,0.0
16/09/2022,02:10:50,-0.001,0.0,0.0,0.0
16/09/2022,02:11:42,-0.000,0.0,0.0,0.0
16/09/2022,02:12:42,-0.000,0.0,0.0,0.0
16/09/2022,02:13:41,0.000,0.0,0.0,0.0
16/09/2022,02:14:41,-0.001,0.0,0.0,0.0
16/09/2022,02:15:41,-0.001,0.0,0.0,0.0
16/09/2022,02:16:41,-0.001,0.0,0.0,0.0
16/09/2022,02:17:42,-0.001,0.0,0.0,0.0
16/09/2022,02:18:41,-0.001,0.0,0.0,0.0
16/09/2022,02:19:41,-0.001,0.0,0.0,0.0
16/09/2022,02:20:42,-0.001,0.0,0.0,0.0
16/09/2022,02:21:41,0.001,0.0,0.0,0.0
16/09/2022,02:22:41,-0.000,0.0,0.0,0.0
16/09/2022,02:23:41,0.000,0.0,0.0,0.0
16/09/2022,02:24:41,-0.001,0.0,0.0,0.0
16/09/2022,02:25:41,-0.001,0.0,0.0,0.0
16/09/2022,02:26:50,-0.001,0.0,0.0,0.0
16/09/2022,02:27:42,-0.000,0.0,0.0,0.0
16/09/2022,02:28:41,-0.001,0.0,0.0,0.0
16/09/2022,02:29:49,-0.001,0.0,0.0,0.0
16/09/2022,02:30:41,-0.000,0.0,0.0,0.0
16/09/2022,02:31:41,-0.001,0.0,0.0,0.0
16/09/2022,02:32:42,-0.001,0.0,0.0,0.0
16/09/2022,02:33:50,-0.000,0.0,0.0,0.0
16/09/2022,02:34:41,0.000,0.0,0.0,0.0
16/09/2022,02:35:41,-0.000,0.0,0.0,0.0
16/09/2022,02:36:41,-0.000,0.0,0.0,0.0
16/09/2022,02:37:42,-0.000,0.0,0.0,0.0
16/09/2022,02:38:41,-0.000,0.0,0.0,0.0
16/09/2022,02:39:41,-0.000,0.0,0.0,0.0
16/09/2022,02:40:42,-0.000,0.0,0.0,0.0
16/09/2022,02:41:41,-0.001,0.0,0.0,0.0
16/09/2022,02:42:41,-0.001,0.0,0.0,0.0
16/09/2022,02:43:42,-0.000,0.0,0.0,0.0
16/09/2022,02:44:41,-0.000,0.0,0.0,0.0
16/09/2022,02:45:41,0.000,0.0,0.0,0.0
16/09/2022,02:46:41,-0.001,0.0,0.0,0.0
16/09/2022,02:47:41,-0.000,0.0,0.0,0.0
16/09/2022,02:48:42,-0.001,0.0,0.0,0.0
16/09/2022,02:49:41,-0.000,0.0,0.0,0.0
16/09/2022,02:50:41,-0.000,0.0,0.0,0.0
16/09/2022,02:51:50,-0.000,0.0,0.0,0.0
16/09/2022,02:52:41,-0.000,0.0,0.0,0.0
16/09/2022,02:53:42,-0.000,0.0,0.0,0.0
16/09/2022,02:54:41,0.000,0.0,0.0,0.0
16/09/2022,02:55:42,0.001,0.0,0.0,0.0
16/09/2022,02:56:41,0.000,0.0,0.0,0.0
16/09/2022,02:57:41,0.000,0.0,0.0,0.0
16/09/2022,02:58:41,-0.000,0.0,0.0,0.0
16/09/2022,02:59:41,-0.001,0.0,0.0,0.0
16/09/2022,03:00:42,-0.000,0.0,0.0,0.0
16/09/2022,03:01:41,-0.000,0.0,0.0,0.0
16/09/2022,03:02:41,-0.000,0.0,0.0,0.0
16/09/2022,03:03:41,-0.000,0.0,0.0,0.0
16/09/2022,03:04:50,-0.000,0.0,0.0,0.0
16/09/2022,03:05:42,0.001,0.0,0.0,0.0
16/09/2022,03:06:42,0.001,0.0,0.0,0.0
16/09/2022,03:07:49,0.000,0.0,0.0,0.0
16/09/2022,03:08:41,-0.000,0.0,0.0,0.0
16/09/2022,03:09:42,-0.000,0.0,0.0,0.0
16/09/2022,03:10:41,-0.001,0.0,0.0,0.0
16/09/2022,03:11:41,-0.001,0.0,0.0,0.0
16/09/2022,03:12:41,-0.001,0.0,0.0,0.0
16/09/2022,03:13:42,-0.001,0.0,0.0,0.0
16/09/2022,03:14:42,-0.000,0.0,0.0,0.0
16/09/2022,03:15:43,0.001,0.0,0.0,0.0
16/09/2022,03:16:41,0.000,0.0,0.0,0.0
16/09/2022,03:17:42,-0.000,0.0,0.0,0.0
16/09/2022,03:18:42,-0.001,0.0,0.0,0.0
16/09/2022,03:19:41,-0.000,0.0,0.0,0.0
16/09/2022,03:20:41,0.000,0.0,0.0,0.0
16/09/2022,03:21:41,0.000,0.0,0.0,0.0
16/09/2022,03:22:42,0.001,0.0,0.0,0.0
16/09/2022,03:23:43,-0.000,0.0,0.0,0.0
16/09/2022,03:24:42,0.000,0.0,0.0,0.0
16/09/2022,03:25:42,-0.000,0.0,0.0,0.0
16/09/2022,03:26:41,-0.001,0.0,0.0,0.0
16/09/2022,03:27:42,-0.000,0.0,0.0,0.0
16/09/2022,03:28:41,-0.000,0.0,0.0,0.0
16/09/2022,03:29:41,0.001,0.0,0.0,0.0
16/09/2022,03:30:41,-0.000,0.0,0.0,0.0
16/09/2022,03:31:42,-0.000,0.0,0.0,0.0
16/09/2022,03:32:41,-0.000,0.0,0.0,0.0
16/09/2022,03:33:41,0.000,0.0,0.0,0.0
16/09/2022,03:34:42,-0.000,0.0,0.0,0.0
16/09/2022,03:35:49,-0.000,0.0,0.0,0.0
16/09/2022,03:36:41,0.000,0.0,0.0,0.0
16/09/2022,03:37:41,-0.000,0.0,0.0,0.0
16/09/2022,03:38:41,-0.000,0.0,0.0,0.0
16/09/2022,03:39:42,-0.000,0.0,0.0,0.0
16/09/2022,03:40:41,0.000,0.0,0.0,0.0
16/09/2022,03:41:41,0.000,0.0,0.0,0.0
16/09/2022,03:42:41,0.000,0.0,0.0,0.0
16/09/2022,03:43:41,0.000,0.0,0.0,0.0
16/09/2022,03:44:41,-0.000,0.0,0.0,0.0
16/09/2022,03:45:49,0.000,0.0,0.0,0.0
16/09/2022,03:46:42,-0.000,0.0,0.0,0.0
16/09/2022,03:47:42,0.000,0.0,0.0,0.0
16/09/2022,03:48:50,0.001,0.0,0.0,0.0
16/09/2022,03:49:41,0.001,0.0,0.0,0.0
16/09/2022,03:50:42,0.000,0.0,0.0,0.0
16/09/2022,03:51:50,0.001,0.0,0.0,0.0
16/09/2022,03:52:41,0.000,0.0,0.0,0.0
16/09/2022,03:53:42,0.001,0.0,0.0,0.0
16/09/2022,03:54:41,-0.000,0.0,0.0,0.0
16/09/2022,03:55:42,-0.001,0.0,0.0,0.0
16/09/2022,03:56:41,-0.000,0.0,0.0,0.0
16/09/2022,03:57:42,-0.000,0.0,0.0,0.0
16/09/2022,03:58:42,-0.000,0.0,0.0,0.0
16/09/2022,03:59:42,-0.000,0.0,0.0,0.0
16/09/2022,04:00:43,0.001,0.0,0.0,0.0
16/09/2022,04:01:50,0.001,0.0,0.0,0.0
16/09/2022,04:02:42,0.000,0.0,0.0,0.0
16/09/2022,04:03:41,-0.000,0.0,0.0,0.0
16/09/2022,04:04:41,-0.000,0.0,0.0,0.0
16/09/2022,04:05:42,-0.001,0.0,0.0,0.0
16/09/2022,04:06:41,-0.000,0.0,0.0,0.0
16/09/2022,04:07:41,0.000,0.0,0.0,0.0
16/09/2022,04:08:42,-0.000,0.0,0.0,0.0
16/09/2022,04:09:41,0.000,0.0,0.0,0.0
16/09/2022,04:10:41,0.000,0.0,0.0,0.0
16/09/2022,04:11:41,-0.000,0.0,0.0,0.0
16/09/2022,04:12:42,-0.000,0.0,0.0,0.0
16/09/2022,04:13:50,0.001,0.0,0.0,0.0
16/09/2022,04:14:41,0.000,0.0,0.0,0.0
16/09/2022,04:15:41,-0.000,0.0,0.0,0.0
16/09/2022,04:16:42,0.000,0.0,0.0,0.0
16/09/2022,04:17:41,0.000,0.0,0.0,0.0
16/09/2022,04:18:42,0.000,0.0,0.0,0.0
16/09/2022,04:19:41,0.000,0.0,0.0,0.0
16/09/2022,04:20:41,0.001,0.0,0.0,0.0
16/09/2022,04:21:41,-0.001,0.0,0.0,0.0
16/09/2022,04:22:42,-0.001,0.0,0.0,0.0
16/09/2022,04:23:41,0.000,0.0,0.0,0.0
16/09/2022,04:24:42,0.000,0.0,0.0,0.0
16/09/2022,04:25:42,0.000,0.0,0.0,0.0
16/09/2022,04:26:49,-0.000,0.0,0.0,0.0
16/09/2022,04:27:42,-0.000,0.0,0.0,0.0
16/09/2022,04:28:42,0.000,0.0,0.0,0.0
16/09/2022,04:29:49,0.000,0.0,0.0,0.0
16/09/2022,04:30:41,-0.001,0.0,0.0,0.0
16/09/2022,04:31:41,-0.000,0.0,0.0,0.0
16/09/2022,04:32:42,0.001,0.0,0.0,0.0
16/09/2022,04:33:41,-0.001,0.0,0.0,0.0
16/09/2022,04:34:41,0.000,0.0,0.0,0.0
16/09/2022,04:35:42,-0.000,0.0,0.0,0.0
16/09/2022,04:36:41,0.000,0.0,0.0,0.0
16/09/2022,04:37:41,-0.001,0.0,0.0,0.0
16/09/2022,04:38:42,-0.000,0.0,0.0,0.0
16/09/2022,04:39:41,0.001,0.0,0.0,0.0
16/09/2022,04:40:41,-0.001,0.0,0.0,0.0
16/09/2022,04:41:42,0.001,0.0,0.0,0.0
16/09/2022,04:42:42,-0.000,0.0,0.0,0.0
16/09/2022,04:43:42,0.001,0.0,0.0,0.0
16/09/2022,04:44:41,0.000,0.0,0.0,0.0
16/09/2022,04:45:43,-0.001,0.0,0.0,0.0
16/09/2022,04:46:42,0.002,0.0,0.0,0.0
16/09/2022,04:47:42,-0.001,0.0,0.0,0.0
16/09/2022,04:48:42,-0.001,0.0,0.0,0.0
16/09/2022,04:49:41,0.000,0.0,0.0,0.0
16/09/2022,04:50:41,-0.000,0.0,0.0,0.0
16/09/2022,04:51:41,-0.000,0.0,0.0,0.0
16/09/2022,04:52:42,-0.000,0.0,0.0,0.0
16/09/2022,04:53:42,-0.000,0.0,0.0,0.0
16/09/2022,04:54:50,-0.000,0.0,0.0,0.0
16/09/2022,04:55:41,-0.001,0.0,0.0,0.0
16/09/2022,04:56:42,0.001,0.0,0.0,0.0
16/09/2022,04:57:42,0.000,0.0,0.0,0.0
16/09/2022,04:58:42,0.000,0.0,0.0,0.0
16/09/2022,04:59:41,-0.001,0.0,0.0,0.0
16/09/2022,05:00:42,0.000,0.0,0.0,0.0
16/09/2022,05:01:41,0.001,0.0,0.0,0.0
16/09/2022,05:02:41,-0.000,0.0,0.0,0.0
16/09/2022,05:03:42,0.001,0.0,0.0,0.0
16/09/2022,05:04:50,-0.001,0.0,0.0,0.0
16/09/2022,05:05:41,-0.000,0.0,0.0,0.0
16/09/2022,05:06:41,-0.000,0.0,0.0,0.0
16/09/2022,05:07:42,-0.000,0.0,0.0,0.0
16/09/2022,05:08:42,0.000,0.0,0.0,0.0
16/09/2022,05:09:41,-0.001,0.0,0.0,0.0
16/09/2022,05:10:43,-0.002,0.0,0.0,0.0
16/09/2022,05:11:42,0.000,0.0,0.0,0.0
16/09/2022,05:12:42,-0.001,0.0,0.0,0.0
16/09/2022,05:13:41,-0.000,0.0,0.0,0.0
16/09/2022,05:14:42,-0.001,0.0,0.0,0.0
16/09/2022,05:15:42,-0.000,0.0,0.0,0.0
16/09/2022,05:16:41,0.000,0.0,0.0,0.0
16/09/2022,05:17:42,0.000,0.0,0.0,0.0
16/09/2022,05:18:41,0.000,0.0,0.0,0.0
16/09/2022,05:19:42,-0.000,0.0,0.0,0.0
16/09/2022,05:20:41,0.000,0.0,0.0,0.0
16/09/2022,05:21:42,0.000,0.0,0.0,0.0
16/09/2022,05:22:42,0.000,0.0,0.0,0.0
16/09/2022,05:23:42,-0.001,0.0,0.0,0.0
16/09/2022,05:24:42,0.000,0.0,0.0,0.0
16/09/2022,05:25:42,0.000,0.0,0.0,0.0
16/09/2022,05:26:41,0.000,0.0,0.0,0.0
16/09/2022,05:27:43,-0.000,0.0,0.0,0.0
16/09/2022,05:28:41,0.001,0.0,0.0,0.0
16/09/2022,05:29:42,0.001,0.0,0.0,0.0
16/09/2022,05:30:42,0.000,0.0,0.0,0.0
16/09/2022,05:31:41,0.001,0.0,0.0,0.0
16/09/2022,05:32:42,0.001,0.0,0.0,0.0
16/09/2022,05:33:42,0.001,0.0,0.0,0.0
16/09/2022,05:34:42,0.002,0.0,0.0,0.0
16/09/2022,05:35:41,0.001,0.0,0.0,0.0
16/09/2022,05:36:42,0.001,0.0,0.0,0.0
16/09/2022,05:37:41,0.002,0.0,0.0,0.0
16/09/2022,05:38:41,0.002,0.0,0.0,0.0
16/09/2022,05:39:50,0.002,0.0,0.0,0.0
16/09/2022,05:40:42,0.002,0.0,0.0,0.0
16/09/2022,05:41:42,0.002,0.0,0.0,0.0
16/09/2022,05:42:41,0.003,0.0,0.0,0.0
16/09/2022,05:43:42,0.001,0.0,0.0,0.0
16/09/2022,05:44:42,0.002,0.0,0.0,0.0
16/09/2022,05:45:42,0.002,0.0,0.0,0.0
16/09/2022,05:46:42,0.003,0.0,0.0,0.0
16/09/2022,05:47:41,0.003,0.0,0.0,0.0
16/09/2022,05:48:41,0.003,0.0,0.0,0.0
16/09/2022,05:49:50,0.004,0.0,0.0,0.0
16/09/2022,05:50:41,0.004,0.0,0.0,0.0
16/09/2022,05:51:42,0.003,0.0,0.0,0.0
16/09/2022,05:52:41,0.005,0.0,0.0,0.0
16/09/2022,05:53:41,0.006,0.0,0.0,0.0
16/09/2022,05:54:42,0.005,0.0,0.0,0.0
16/09/2022,05:55:41,0.005,0.0,0.0,0.0
16/09/2022,05:56:42,0.005,0.0,0.0,0.0
16/09/2022,05:57:42,0.006,0.0,0.0,0.0
16/09/2022,05:58:42,0.007,0.0,0.0,0.0
16/09/2022,05:59:42,0.007,0.0,0.0,0.0
16/09/2022,06:00:41,0.006,0.0,0.0,0.0
16/09/2022,06:01:41,0.008,0.0,0.0,0.0
16/09/2022,06:02:42,0.008,0.0,0.0,0.0
16/09/2022,06:03:41,0.009,0.0,0.001,0.001
16/09/2022,06:04:42,0.009,0.0,0.001,0.0
16/09/2022,06:05:42,0.008,0.0,0.001,0.0
16/09/2022,06:06:42,0.009,0.0,0.001,0.0
16/09/2022,06:07:42,0.009,0.0,0.001,0.0
16/09/2022,06:08:42,0.010,0.0,0.001,0.0
16/09/2022,06:09:42,0.010,0.0,0.002,0.001
16/09/2022,06:10:42,0.011,0.0,0.002,0.0
16/09/2022,06:11:42,0.012,0.0,0.002,0.0
16/09/2022,06:12:43,0.012,0.0,0.002,0.0
16/09/2022,06:13:43,0.013,0.0,0.002,0.0
16/09/2022,06:14:41,0.014,0.0,0.003,0.001
16/09/2022,06:15:41,0.015,0.0,0.003,0.0
16/09/2022,06:16:41,0.015,0.0,0.003,0.0
16/09/2022,06:17:41,0.015,0.0,0.003,0.0
16/09/2022,06:18:42,0.017,0.0,0.004,0.001
16/09/2022,06:19:42,0.017,0.0,0.004,0.0
16/09/2022,06:20:42,0.018,0.0,0.004,0.0
16/09/2022,06:21:42,0.018,0.0,0.004,0.0
16/09/2022,06:22:42,0.019,0.0,0.005,0.001
16/09/2022,06:23:33,0.019,0.0,0.005,0.0
16/09/2022,06:24:42,0.021,0.0,0.005,0.0
16/09/2022,06:25:41,0.021,0.0,0.006,0.001
16/09/2022,06:26:41,0.021,0.0,0.006,0.0
16/09/2022,06:27:51,0.023,0.0,0.007,0.001
16/09/2022,06:28:43,0.024,0.0,0.007,0.0
16/09/2022,06:29:42,0.025,0.0,0.007,0.0
16/09/2022,06:30:50,0.026,0.0,0.008,0.001
16/09/2022,06:31:41,0.027,0.0,0.008,0.0
16/09/2022,06:32:42,0.028,0.0,0.009,0.001
16/09/2022,06:33:42,0.030,0.0,0.009,0.0
16/09/2022,06:34:42,0.031,0.0,0.01,0.001
16/09/2022,06:35:41,0.031,0.0,0.01,0.0
16/09/2022,06:36:42,0.033,0.0,0.011,0.001
16/09/2022,06:37:41,0.035,0.0,0.011,0.0
16/09/2022,06:38:42,0.036,0.0,0.012,0.001
16/09/2022,06:39:41,0.037,0.0,0.012,0.0
16/09/2022,06:40:42,0.039,0.0,0.013,0.001
16/09/2022,06:41:41,0.040,0.0,0.014,0.001
16/09/2022,06:42:41,0.042,0.0,0.014,0.0
16/09/2022,06:43:42,0.043,0.0,0.015,0.001
16/09/2022,06:44:42,0.044,0.0,0.016,0.001
16/09/2022,06:45:42,0.046,0.0,0.017,0.001
16/09/2022,06:46:42,0.048,0.0,0.017,0.0
16/09/2022,06:47:42,0.050,0.0,0.018,0.001
16/09/2022,06:48:42,0.052,0.0,0.019,0.001
16/09/2022,06:49:42,0.052,0.0,0.02,0.001
16/09/2022,06:50:50,0.055,0.0,0.021,0.001
16/09/2022,06:51:41,0.056,0.0,0.022,0.001
16/09/2022,06:52:42,0.059,0.0,0.023,0.001
16/09/2022,06:53:42,0.059,0.0,0.024,0.001
16/09/2022,06:54:58,0.061,0.0,0.025,0.001
16/09/2022,06:56:51,0.062,0.0,0.027,0.002
16/09/2022,06:57:42,0.065,0.0,0.028,0.001
16/09/2022,06:58:42,0.067,0.0,0.029,0.001
16/09/2022,06:59:50,0.069,0.0,0.03,0.001
16/09/2022,07:00:42,0.071,0.0,0.031,0.001
16/09/2022,07:01:41,0.072,0.0,0.032,0.001
16/09/2022,07:02:42,0.076,0.0,0.034,0.002
16/09/2022,07:03:42,0.077,0.0,0.035,0.001
16/09/2022,07:04:42,0.079,0.0,0.036,0.001
16/09/2022,07:05:41,0.081,0.0,0.037,0.001
16/09/2022,07:06:41,0.083,0.0,0.039,0.002
16/09/2022,07:07:42,0.085,0.0,0.04,0.001
16/09/2022,07:08:42,0.087,0.0,0.042,0.002
16/09/2022,07:09:42,0.090,0.0,0.043,0.001
16/09/2022,07:10:41,0.092,0.0,0.045,0.002
16/09/2022,07:11:42,0.092,0.0,0.046,0.001
16/09/2022,07:12:41,0.095,0.0,0.048,0.002
16/09/2022,07:13:42,0.097,0.0,0.049,0.001
16/09/2022,07:14:41,0.100,0.0,0.051,0.002
16/09/2022,07:15:42,0.102,0.0,0.053,0.002
16/09/2022,07:16:42,0.103,0.0,0.054,0.001
16/09/2022,07:17:42,0.103,0.0,0.056,0.002
16/09/2022,07:18:50,0.107,0.0,0.058,0.002
16/09/2022,07:19:42,0.106,0.0,0.06,0.002
16/09/2022,07:20:42,0.108,0.0,0.061,0.001
16/09/2022,07:21:41,0.115,0.0,0.063,0.002
16/09/2022,07:22:42,0.118,0.0,0.065,0.002
16/09/2022,07:23:41,0.120,0.0,0.067,0.002
16/09/2022,07:24:41,0.122,0.0,0.069,0.002
16/09/2022,07:25:50,0.125,0.0,0.072,0.003
16/09/2022,07:26:42,0.129,0.0,0.074,0.002
16/09/2022,07:27:42,0.131,0.0,0.076,0.002
16/09/2022,07:28:50,0.135,0.0,0.078,0.002
16/09/2022,07:29:41,0.134,0.0,0.08,0.002
16/09/2022,07:30:42,0.140,0.0,0.082,0.002
16/09/2022,07:31:51,0.141,0.0,0.085,0.003
16/09/2022,07:32:41,0.142,0.0,0.087,0.002
16/09/2022,07:33:41,0.141,0.0,0.089,0.002
16/09/2022,07:34:42,0.149,0.0,0.092,0.003
16/09/2022,07:35:42,0.152,0.0,0.094,0.002
16/09/2022,07:36:42,0.156,0.0,0.097,0.003
16/09/2022,07:37:42,0.160,0.0,0.1,0.003
16/09/2022,07:38:42,0.163,0.0,0.102,0.002
16/09/2022,07:39:41,0.167,0.0,0.105,0.003
16/09/2022,07:40:42,0.170,0.0,0.108,0.003
16/09/2022,07:41:50,0.173,0.0,0.111,0.003
16/09/2022,07:42:42,0.176,0.0,0.114,0.003
16/09/2022,07:43:42,0.179,0.0,0.117,0.003
16/09/2022,07:44:42,0.181,0.0,0.119,0.002
16/09/2022,07:45:42,0.182,0.0,0.123,0.004
16/09/2022,07:46:41,0.169,0.0,0.125,0.002
16/09/2022,07:47:42,0.171,0.0,0.128,0.003
16/09/2022,07:48:41,0.173,0.0,0.131,0.003
16/09/2022,07:49:42,0.178,0.0,0.134,0.003
16/09/2022,07:50:42,0.180,0.0,0.137,0.003
16/09/2022,07:51:50,0.180,0.0,0.14,0.003
16/09/2022,07:52:42,0.193,0.0,0.143,0.003
16/09/2022,07:53:42,0.184,0.0,0.146,0.003
16/09/2022,07:54:42,0.190,0.0,0.149,0.003
16/09/2022,07:55:42,0.189,0.0,0.152,0.003
16/09/2022,07:56:42,0.193,0.0,0.156,0.004
16/09/2022,07:57:42,0.199,0.0,0.159,0.003
16/09/2022,07:58:42,0.203,0.0,0.162,0.003
16/09/2022,07:59:42,0.208,0.0,0.166,0.004
16/09/2022,08:00:41,0.201,0.0,0.169,0.003
16/09/2022,08:01:42,0.196,0.0,0.172,0.003
16/09/2022,08:02:42,0.196,0.0,0.176,0.004
16/09/2022,08:03:42,0.196,0.0,0.179,0.003
16/09/2022,08:04:42,0.197,0.0,0.182,0.003
16/09/2022,08:05:42,0.204,0.0,0.186,0.004
16/09/2022,08:06:41,0.211,0.0,0.189,0.003
16/09/2022,08:07:42,0.218,1.0,0.193,0.004
16/09/2022,08:08:42,0.223,1.0,0.196,0.003
16/09/2022,08:09:50,0.221,1.0,0.201,0.005
16/09/2022,08:10:42,0.221,1.0,0.204,0.003
16/09/2022,08:11:42,0.223,1.0,0.207,0.003
16/09/2022,08:12:41,0.225,1.0,0.211,0.004
16/09/2022,08:13:42,0.225,1.0,0.215,0.004
16/09/2022,08:14:42,0.234,1.0,0.219,0.004
16/09/2022,08:15:41,0.252,1.0,0.223,0.004
16/09/2022,08:16:42,0.249,1.0,0.227,0.004
16/09/2022,08:17:42,0.250,1.0,0.231,0.004
16/09/2022,08:18:42,0.244,1.0,0.236,0.005
16/09/2022,08:19:42,0.245,1.0,0.24,0.004
16/09/2022,08:20:42,0.243,1.0,0.244,0.004
16/09/2022,08:21:42,0.250,1.0,0.248,0.004
16/09/2022,08:22:50,0.256,1.0,0.253,0.005
16/09/2022,08:23:42,0.267,1.0,0.256,0.003
16/09/2022,08:24:42,0.266,1.0,0.261,0.005
16/09/2022,08:25:42,0.273,1.0,0.265,0.004
16/09/2022,08:26:42,0.283,1.0,0.27,0.005
16/09/2022,08:27:41,0.335,1.0,0.275,0.005
16/09/2022,08:28:42,0.344,1.0,0.281,0.006
16/09/2022,08:29:42,0.328,1.0,0.286,0.005
16/09/2022,08:30:42,0.304,1.0,0.291,0.005
16/09/2022,08:31:42,0.294,1.0,0.296,0.005
16/09/2022,08:32:50,0.333,1.0,0.302,0.006
16/09/2022,08:33:41,0.352,1.0,0.307,0.005
16/09/2022,08:34:41,0.366,1.0,0.313,0.006
16/09/2022,08:35:50,0.382,1.0,0.32,0.007
16/09/2022,08:36:42,0.393,1.0,0.326,0.006
16/09/2022,08:37:42,0.398,1.0,0.333,0.007
16/09/2022,08:38:42,0.397,1.0,0.339,0.006
16/09/2022,08:39:42,0.408,1.0,0.346,0.007
16/09/2022,08:40:42,0.375,1.0,0.352,0.006
16/09/2022,08:41:43,0.303,1.0,0.358,0.006
16/09/2022,08:42:42,0.303,1.0,0.363,0.005
16/09/2022,08:43:42,0.332,1.0,0.368,0.005
16/09/2022,08:44:42,0.361,1.0,0.375,0.007
16/09/2022,08:45:50,0.325,1.0,0.381,0.006
16/09/2022,08:46:42,0.314,1.0,0.386,0.005
16/09/2022,08:47:42,0.399,1.0,0.392,0.006
16/09/2022,08:48:50,0.304,1.0,0.398,0.006
16/09/2022,08:49:42,0.303,1.0,0.402,0.004
16/09/2022,08:50:42,0.304,1.0,0.407,0.005
16/09/2022,08:51:42,0.300,1.0,0.413,0.006
16/09/2022,08:52:42,0.306,1.0,0.418,0.005
16/09/2022,08:53:42,0.315,1.0,0.423,0.005
16/09/2022,08:54:42,0.317,1.0,0.428,0.005
16/09/2022,08:55:42,0.314,1.0,0.433,0.005
16/09/2022,08:56:42,0.315,1.0,0.438,0.005
16/09/2022,08:57:42,0.327,1.0,0.444,0.006
16/09/2022,08:58:50,0.343,1.0,0.45,0.006
16/09/2022,08:59:42,0.333,1.0,0.455,0.005
16/09/2022,09:00:42,0.334,1.0,0.461,0.006
16/09/2022,09:01:42,0.359,1.0,0.466,0.005
16/09/2022,09:02:42,0.383,1.0,0.473,0.007
16/09/2022,09:03:42,0.395,1.0,0.479,0.006
16/09/2022,09:04:42,0.407,1.0,0.486,0.007
16/09/2022,09:05:42,0.412,1.0,0.493,0.007
16/09/2022,09:06:42,0.428,1.0,0.5,0.007
16/09/2022,09:07:42,0.554,1.0,0.508,0.008
16/09/2022,09:08:42,0.564,1.0,0.516,0.008
16/09/2022,09:09:42,0.572,1.0,0.525,0.009
16/09/2022,09:10:42,0.577,1.0,0.535,0.01
16/09/2022,09:11:42,0.504,1.0,0.545,0.01
16/09/2022,09:12:51,0.578,1.0,0.555,0.01
16/09/2022,09:13:42,0.483,1.0,0.563,0.008
16/09/2022,09:14:42,0.605,1.0,0.572,0.009
16/09/2022,09:15:42,0.614,1.0,0.582,0.01
16/09/2022,09:16:42,0.612,1.0,0.593,0.011
16/09/2022,09:17:42,0.610,1.0,0.603,0.01
16/09/2022,09:18:42,0.629,1.0,0.613,0.01
16/09/2022,09:19:44,0.630,1.0,0.624,0.011
16/09/2022,09:20:42,0.635,1.0,0.634,0.01
16/09/2022,09:21:42,0.645,1.0,0.645,0.011
16/09/2022,09:22:42,0.648,1.0,0.656,0.011
16/09/2022,09:23:51,0.654,2.0,0.667,0.011
16/09/2022,09:24:42,0.502,1.0,0.676,0.009
16/09/2022,09:25:42,0.649,1.0,0.685,0.009
16/09/2022,09:26:50,0.527,1.0,0.696,0.011
16/09/2022,09:27:42,0.674,2.0,0.706,0.01
16/09/2022,09:28:42,0.697,2.0,0.715,0.009
16/09/2022,09:29:42,0.687,2.0,0.727,0.012
16/09/2022,09:30:42,0.694,2.0,0.738,0.011
16/09/2022,09:31:42,0.701,2.0,0.75,0.012
16/09/2022,09:32:42,0.697,2.0,0.762,0.012
16/09/2022,09:33:42,0.713,2.0,0.773,0.011
16/09/2022,09:34:42,0.713,2.0,0.785,0.012
16/09/2022,09:35:42,0.584,1.0,0.794,0.009
16/09/2022,09:36:50,0.521,1.0,0.807,0.013
16/09/2022,09:37:41,0.520,1.0,0.814,0.007
16/09/2022,09:38:42,0.666,2.0,0.823,0.009
16/09/2022,09:39:50,0.719,2.0,0.837,0.014
16/09/2022,09:40:42,0.541,1.0,0.847,0.01
16/09/2022,09:41:42,0.521,1.0,0.856,0.009
16/09/2022,09:42:42,0.517,1.0,0.867,0.011
16/09/2022,09:43:42,0.525,1.0,0.875,0.008
16/09/2022,09:44:42,0.647,1.0,0.887,0.012
16/09/2022,09:45:42,0.677,2.0,0.898,0.011
16/09/2022,09:46:42,0.499,1.0,0.908,0.01
16/09/2022,09:47:42,0.512,1.0,0.917,0.009
16/09/2022,09:48:42,0.661,2.0,0.926,0.009
16/09/2022,09:49:42,0.752,2.0,0.938,0.012
16/09/2022,09:50:42,0.704,2.0,0.951,0.013
16/09/2022,09:51:42,0.793,2.0,0.963,0.012
16/09/2022,09:52:51,0.801,2.0,0.979,0.016
16/09/2022,09:53:42,0.809,2.0,0.99,0.011
16/09/2022,09:54:50,0.824,2.0,1.006,0.016
16/09/2022,09:55:42,0.830,2.0,1.018,0.012
16/09/2022,09:56:42,0.842,2.0,1.032,0.014
16/09/2022,09:57:43,0.848,2.0,1.046,0.014
16/09/2022,09:58:42,0.847,2.0,1.06,0.014
16/09/2022,09:59:43,0.857,2.0,1.074,0.014
16/09/2022,10:00:42,0.860,2.0,1.088,0.014
16/09/2022,10:01:42,0.870,2.0,1.103,0.015